User: anonymous   Login
Location: *
(50.3440°N, 18.6237°E)
Time: 05:23:37
(UTC+00:00)
Language:

Cosmos 1867 - Orbit

View from above orbital plane
View from above orbital plane
View from above satellite
View from above satellite

Ground track
Ground track

The orbit data is extracted from the following two-line orbital elements,

1 18187U 87060A   21055.72714276 -.00000092  00000-0  30459-5 0  9993
2 18187  65.0106  54.6876 0017910 282.0820  77.8257 14.31119056756747
Epoch (UTC): 24 February 2021 17:27:05
Eccentricity: 0.0017910
inclination: 65.0106°
perigee height: 775 km
apogee height: 801 km
right ascension of ascending node: 54.6876°
argument of perigee: 282.0820°
revolutions per day: 14.31119056
mean anomaly at epoch: 77.8257°
orbit number at epoch: 75674

The dashed part of the orbit path shows where the satellite is in the earth's shadow,  

DLR